Location: Leuk
(46.3174°N, 7.6341°E)
Time: 01:52:37
(UTC+00:00)

Daily predictions for brighter satellites

Satellite Brightness Start Highest point End
(mag) Time Altitude Azimuth Time Altitude Azimuth Time Altitude Azimuth
USA 267 4.3 01:44:33 10° NE 01:48:35 39° ENE 01:48:35 39° ENE
CENTAUR R/B 4.2 01:55:16 10° NNW 02:02:31 40° NE 02:10:35 10° ESE
Cosmos 2360 Rocket 4.5 02:11:00 10° NNW 02:22:24 - SE 02:12:08 16° N
ADEOS II 4.1 02:15:43 10° N 02:17:29 21° N 02:17:29 21° N
IDEFIX/ARIANE 42P 4.2 02:17:06 10° NNE 02:19:41 30° NNE 02:19:41 30° NNE
USA 234 3.6 02:19:07 10° ESE 02:24:09 56° E 02:24:09 56° E
Cosmos 1553 Rocket 4.4 02:32:42 61° NE 02:32:42 61° NE 02:38:06 10° NNE
Lacrosse 5 3.3 02:40:09 33° E 02:40:09 33° E 02:43:08 10° ESE
Cosmos 2082 Rocket 4.0 02:42:36 21° NNW 02:42:36 21° NNW 02:45:16 10° N
Cosmos 2333 Rocket 3.7 02:39:41 10° NNW 02:44:58 35° NE 02:50:13 10° ESE
MSX 4.2 02:39:29 10° NNE 02:44:10 59° NNE 02:44:10 59° NNE
Cosmos 2221 4.4 02:53:27 27° NNE 02:53:27 27° NNE 02:55:33 10° NNE
Cosmos 2219 Rocket 3.5 02:54:42 10° NNW 02:59:58 38° NE 03:05:14 10° ESE
CZ-2C R/B 3.2 02:57:21 10° NNE 03:01:53 43° E 03:02:02 43° ESE
Cosmos 1606 4.2 03:12:56 37° ENE 03:12:56 37° ENE 03:15:59 10° NNE
USA 238 DEB 3.9 03:06:56 10° NW 03:14:13 81° NE 03:21:48 10° SE
USA 238 3.9 03:07:03 10° NW 03:14:19 80° NE 03:21:54 10° SE
COSMOS 2428 3.8 03:10:57 10° NNW 03:16:23 43° NE 03:21:48 10° SE
ATLAS 3B R/B 4.5 03:11:31 10° NNW 03:17:18 27° NNE 03:23:15 10° E
ATLAS 5 CENTAUR R/B 3.5 03:19:18 18° SE 03:20:23 20° ESE 03:23:28 10° ENE
S3M 3.8 03:21:13 68° SW 03:21:54 76° W 03:28:08 10° N
ARIANE 5 R/B 3.4 03:19:57 10° N 03:23:22 36° NNW 03:23:22 36° NNW
Cosmos 1745 Rocket 3.9 03:19:33 10° NNW 03:25:48 65° W 03:26:31 60° SW
CZ-4C R/B 4.2 03:30:56 41° ENE 03:30:56 41° ENE 03:34:02 10° N
USA 267 3.6 03:27:41 10° NE 03:34:00 53° NNW 03:35:57 40° WNW
FENGYUN 3A 4.3 03:29:20 10° NNE 03:34:41 53° E 03:39:58 10° S
Cosmos 2322 3.7 03:31:24 10° NNW 03:37:08 84° ENE 03:42:48 10° SSE
Cosmos 1709 Rocket 3.9 03:31:12 10° N 03:37:37 88° W 03:43:59 10° S
H-2A R/B 3.2 03:37:49 10° SE 03:41:48 43° ENE 03:45:45 10° N
NOSS 3-2 (A) 4.0 03:35:25 10° NW 03:42:56 65° WSW 03:51:22 10° SSE
Spot 4 Rocket 4.3 03:41:36 10° N 03:46:28 46° WNW 03:46:28 46° WNW
COSMOS 2487 3.2 03:50:12 43° N 03:50:12 43° N 03:52:38 10° NNE
Cosmos 1833 4.2 03:48:29 49° WSW 03:49:41 61° WNW 03:55:17 10° NNE
Cosmos 2344 3.5 03:46:42 38° WSW 03:49:46 69° NW 03:57:49 10° NE
Cosmos 1633 Rocket 4.4 03:46:44 10° N 03:50:54 39° ENE 03:55:01 10° SE
CENTAUR R/B 3.1 03:45:53 10° NW 03:54:02 78° SW 04:02:56 10° SSE
Geosat 4.4 03:49:26 10° NE 03:54:27 63° ESE 03:58:04 19° SSW
Cosmos 2251 Rocket 3.5 03:53:53 42° SW 03:55:38 70° WNW 04:01:03 10° NNE
Cosmos 614 Rocket 4.0 03:54:14 27° SSW 03:57:11 84° ESE 04:02:27 10° NNE
Meteor 1-20 Rocket 4.5 03:53:14 10° N 03:58:57 73° ENE 04:04:45 10° SSE
Cosmos 2360 Rocket 4.0 04:04:24 14° SSW 04:04:24 14° SSW 04:05:17 10° SSW
ISS -3.5 04:00:41 57° N 04:01:01 61° NNE 04:04:21 10° ESE
IDEFIX/ARIANE 42P 4.2 03:57:49 10° NNW 04:00:31 18° NW 04:00:31 18° NW
Cosmos 1933 3.6 03:58:06 15° S 04:01:23 68° E 04:05:26 10° NNE
Meteor 2-17 Rocket 4.3 03:56:58 10° NNW 04:02:58 67° W 04:08:58 10° S
ALOS 2.2 03:58:27 10° NNE 04:03:10 89° ESE 04:07:02 15° SSW
PAYLOAD A 4.3 03:58:11 10° N 04:03:18 49° WNW 04:05:04 36° WSW
CZ-2C R/B 4.0 04:01:52 10° N 04:04:15 27° NW 04:04:15 27° NW
Cosmos 2237 Rocket 3.5 04:02:23 10° NNW 04:07:45 41° NE 04:13:05 10° SE
Cosmos 2333 4.3 04:02:31 10° NW 04:08:08 51° WSW 04:13:41 10° S
USA 234 3.7 04:03:03 10° SSE 04:08:59 37° SW 04:11:34 27° W
Meteor 1-31 Rocket 4.0 04:07:12 10° NNE 04:10:55 42° E 04:14:33 10° S
Iridium 51 4.5 04:07:52 10° N 04:11:38 64° E 04:15:08 10° SSE
Cosmos 407 Rocket 3.8 04:07:09 10° S 04:12:16 66° ESE 04:17:22 10° NNE
CZ-4C R/B 2.1 04:10:13 23° SSW 04:13:22 78° SE 04:19:17 10° NE
PSLV R/B 3.8 04:11:31 10° N 04:15:45 48° WNW 04:17:21 32° SW
USA 276 2.2 04:16:02 54° WNW 04:16:29 63° NNW 04:19:40 10° ENE
Lacrosse 5 2.3 04:19:24 30° W 04:21:05 38° SW 04:25:44 10° SSE
NOSS 3-4 (A) 3.4 04:16:30 15° SSW 04:21:24 79° SE 04:27:42 10° NE
NOSS 3-4 (C) 3.5 04:16:34 15° SSW 04:21:30 78° SE 04:27:48 10° NE
Cosmos 1190 Rocket 4.5 04:18:41 10° S 04:23:55 64° ESE 04:29:11 10° NNE
Cosmos 192 4.2 04:19:01 10° NNW 04:23:57 71° WSW 04:28:53 10° SSE
Cosmos 1328 Rocket 4.0 04:20:07 10° S 04:24:21 63° E 04:28:38 10° NNE
NOSS 3-2 (C) 4.1 04:17:28 10° NW 04:24:56 58° WSW 04:33:18 10° SSE
Cosmos 2227 Rocket 4.3 04:22:12 10° SSE 04:26:57 29° ESE 04:31:44 10° NE
Cosmos 2333 Rocket 2.5 04:23:55 10° NW 04:29:21 43° WSW 04:34:45 10° S
SJ-12 4.4 04:25:28 10° NNE 04:29:30 60° E 04:33:30 10° S
SL-16 R/B 4.3 04:25:48 10° N 04:30:33 26° NE 04:35:16 10° ESE
Cosmos 1484 Rocket 2.8 04:29:08 10° N 04:32:44 49° WNW 04:35:27 16° SW
Cosmos 1805 Rocket 4.4 04:29:46 10° NNW 04:33:38 29° W 04:37:28 10° SSW
Cosmos 1437 Rocket 2.8 04:29:56 10° S 04:34:00 88° E 04:38:02 10° NNE
Cosmos 1470 Rocket 3.9 04:31:21 10° N 04:35:42 66° E 04:39:59 10° SSE
Landsat 5 4.1 04:32:53 10° SSW 04:36:14 28° W 04:39:39 10° NW
CZ-4B R/B 4.4 04:32:10 10° NNE 04:36:31 44° E 04:40:48 10° S
ATLAS 2AS CENTAUR R/B 3.3 04:28:48 10° SSW 04:36:39 72° ESE 04:44:26 10° NE
CZ-2C R/B 3.5 04:36:07 10° N 04:39:51 24° WNW 04:41:25 20° W
Cosmos 2315 Rocket 4.5 04:34:41 10° SW 04:40:17 38° WNW 04:46:02 10° N
CZ-4B R/B 1.5 04:37:16 10° SSE 04:40:20 68° ENE 04:43:22 10° N
COSMO-SKYMED 1 2.6 04:36:56 10° SSE 04:41:16 89° ENE 04:45:38 10° NNW
Cosmos 2297 Rocket 3.3 04:36:35 10° S 04:41:57 47° ESE 04:47:20 10° NE
Cosmos 2219 Rocket 2.6 04:38:43 10° NW 04:43:55 38° WSW 04:49:07 10° S
Cosmos 1782 2.7 04:40:01 10° SSW 04:43:57 77° W 04:47:56 10° N
Cosmos 1606 4.3 04:47:58 17° WNW 04:48:13 17° WNW 04:50:50 10° NNW
Cosmos 1140 Rocket 3.4 04:44:29 10° SSW 04:49:41 71° WNW 04:54:52 10° NNE
Sich 1 4.0 04:46:36 10° NNW 04:50:14 26° W 04:53:51 10° SW
Meteor 1-26 Rocket 4.3 04:47:01 10° SSW 04:52:44 69° WNW 04:58:40 10° N
Cosmos 1500 3.3 04:48:55 10° N 04:52:44 80° E 04:56:33 10° S
Cosmos 1980 3.7 04:47:07 10° NNW 04:52:49 89° ENE 04:58:29 10° SSE
METEOR-M 4.4 04:48:40 10° N 04:53:46 47° WNW 04:58:50 10° SW
ERS-2 3.6 04:51:18 10° SE 04:54:44 41° ENE 04:58:11 10° N
Cosmos 1933 Rocket 3.9 04:51:39 10° N 04:56:08 73° E 05:00:34 10° SSE
Cosmos 1666 Rocket 4.1 04:53:32 10° NNW 04:57:29 34° W 05:01:28 10° SSW
Cosmos 2074 Rocket 4.1 04:52:19 10° NNW 04:58:23 56° W 05:04:23 10° SSW
MOS 1 Rocket 3.3 04:56:10 10° S 05:00:28 54° W 05:05:03 10° NNW
COSMOS 2428 3.3 04:55:28 10° NW 05:00:32 34° WSW 05:05:36 10° SSW
SeaSat 1 2.5 04:55:42 10° SSE 05:00:33 60° WSW 05:05:28 10° NW
BREEZE M DEB (TANK) 2.7 04:59:34 13° WNW 05:02:08 86° SSW 05:10:27 10° ESE
BREEZE-M DEB (TANK) 2.9 05:00:37 12° WNW 05:04:21 45° N 05:06:37 10° ENE
ATLAS 5 CENTAUR R/B 1.8 05:00:50 11° WSW 05:04:31 48° NW 05:08:56 10° NNE
YAOGAN 6 3.3 05:02:04 10° NNE 05:05:31 55° E 05:08:55 10° S
Cosmos 2154 Rocket 4.0 04:59:40 10° NNW 05:05:55 74° W 05:12:09 10° S
CZ-4B R/B 4.1 05:05:03 10° N 05:08:30 38° WNW 05:11:53 10° SW
ATLAS 3B R/B 3.0 05:02:02 10° NW 05:09:03 79° NE 05:16:22 10° SE
ADEOS 3.8 05:04:01 10° N 05:09:04 50° WNW 05:14:05 10° SW
USA 267 4.3 05:10:27 10° ENE 05:16:16 35° N 05:22:03 10° WNW
H-2A R/B 3.3 05:14:56 10° SW 05:17:58 19° W 05:20:57 10° NW
Cosmos 1151 Rocket 3.9 05:16:07 10° SW 05:19:51 28° WNW 05:23:36 10° NNW
Cosmos 2219 3.3 05:16:10 10° SSW 05:21:50 88° ESE 05:27:31 10° NNE
NOSS 0 Rocket 4.4 05:18:48 10° NW 05:24:31 41° WSW 05:30:13 10° S
Cosmos 1763 Rocket 3.7 05:20:01 10° NNW 05:25:17 77° ENE 05:30:25 10° SSE
